Weather in Artem'evskaya

Russia / Vologda Oblast     60°44′30″N   41°36′51″E
temp.,
°C
wind,
m/s
gust,
m/s
humid.,
%
clouds,
%
prec.,
mm/h
press.,
hPa
HPBL,
m
16 april, fri
fri1600:000ene27820 0.0 1031149
03:00−1ne26845 0.0 1032117
06:00−2ene27875 0.0 1033160
09:00+5ene24550 0.0 1033619
12:00+8ene23400 0.0 10331002
15:00+9ne33400 0.0 10321162
18:00+7ne24590 0.0 1032113
21:00+2ne22720 0.0 103311
17 april, sat
sat1700:00+1ne11770 0.0 103410
03:000ne11820 0.0 103410
06:00+1ne22800 0.0 103448
09:00+6ne23625 0.0 1034467
12:00+9ne22525 0.0 10331129
15:00+10ne23465 0.0 10321376
18:00+9nne12585 0.0 103160
21:00+4n24755 0.0 103272
18 april, sun
sun1800:00+3nne22835 0.0 103234
03:00+2nne228849 0.0 103224
06:00+2nne2790100 0.0 1032194
09:00+6ne3569100 0.0 1032526
12:00+8ne3561100 0.0 10321143
15:00+6ene4670100 0.0 1033788
18:00+5ene3665100 0.0 10331194
21:00+2e227941 0.0 103414
19 april, mon
mon1900:000ene28835 0.0 1035180
03:00−1ene27815 0.0 1035160
06:00−1e28740 0.0 1036266
09:00+4e46450 0.0 1035903
12:00+7ese45405 0.0 10351435
15:00+8ese35375 0.0 10341558
18:00+7ese36450 0.0 1033528
21:00+2ese28695 0.0 1034152
20 april, tue
tue2000:000se27765 0.0 1034137
03:00−1se267676 0.0 1033120
06:000ese286897 0.0 1033243
09:00+5se47390 0.0 1031938
12:00+8se57310 0.0 10301400
15:00+9se5732100 0.0 10271558
18:00+8se4845100 0.0 1026868
21:00+5ese41359100 0.0 1025533